Location: Bruderhein
(53.8035°N, 112.9265°W)
Time: 02:06:04
(UTC+00:00)

STRAND 1 - Pass Details

Date: 03 April 2023
Orbit: 767 x 779 km, 98.4° (Epoch: 31 May)

Event Time Altitude Azimuth Distance (km) Brightness Sun altitude
Rises 03:58:12 0° 9° (N) 3,255 ? -15.7°
Reaches altitude 10° 04:00:50 10° 358° (N) 2,323 ? -16.0°
Maximum altitude 04:05:01 26° 302° (WNW) 1,471 ? -16.5°
Drops below altitude 10° 04:09:12 10° 247° (WSW) 2,310 ? -17.0°
Sets 04:11:48 0° 235° (SW) 3,232 ? -17.4°
